Regional Weather Roundup
Issued by NWS

Home | Current Version | Previous Version | Text Only | Print | Product List | Glossary On
Versions: 1 2 3 4 5 6 7 8 9 10 11 12 13 14 15 16 17 18 19 20 21 22 23 24 25 26 27 28 29 30 31 32 33 34 35 36 37 38 39 40 41 42 43 44 45 46 47 48 49 50
000
ASUS43 KLMK 271902
RWRKY
KENTUCKY REGIONAL WEATHER ROUNDUP
NATIONAL WEATHER SERVICE LOUISVILLE KY
200 PM EST SAT DEC 27 2014

NOTE "FAIR" INDICATES FEW OR NO CLOUDS BELOW 12,000 FEET
WITH NO SIGNIFICANT WEATHER AND/OR OBSTRUCTIONS TO VISIBILITY.

KYZ001>023-026-027-061>063-070>075-272000-
WESTERN AND SOUTH CENTRAL KENTUCKY

CITY           SKY/WX    TMP DP  RH WIND       PRES   REMARKS
PADUCAH        LGT RAIN  50  48  93 SW3       30.11S FOG
HENDERSON      CLOUDY    48  45  87 S6        30.11F
OWENSBORO      LGT RAIN  49  47  93 SW6       30.13F
HOPKINSVILLE   LGT RAIN  50  47  88 SW2       30.13F FOG
BOWLING GREEN  CLOUDY    53  45  74 SE6       30.14F
GLASGOW        NOT AVBL
$$

KYZ024-025-028>034-038-045-046-053-272000-
NORTH CENTRAL KENTUCKY

CITY           SKY/WX    TMP DP  RH WIND       PRES   REMARKS
LOUISVILLE/SDF CLOUDY    52  45  77 S10       30.13F
LOUISVILLE/LOU CLOUDY    51  45  79 S7        30.13F
FORT KNOX      CLOUDY    49  44  80 S10       30.11F
$$

KYZ035>037-039>044-047>052-055>060-089>105-272000-
NORTHEAST KENTUCKY

CITY           SKY/WX    TMP DP  RH WIND       PRES   REMARKS
LEXINGTON      CLOUDY    51  42  71 S14       30.15F
COVINGTON      CLOUDY    49  42  77 SW12      30.11F
FRANKFORT      CLOUDY    50  43  77 S8        30.13F
$$

KYZ054-064>069-076>088-106>120-272000-
SOUTHEAST KENTUCKY

CITY           SKY/WX    TMP DP  RH WIND       PRES   REMARKS
JACKSON        CLOUDY    59  30  33 CALM      30.16F
LONDON         CLOUDY    58  25  28 SW3       30.17F
SOMERSET       NOT AVBL
MIDDLESBORO    PTSUNNY   55  35  47 SE5       30.21F
MONTICELLO     MOCLDY    61  35  37 SE6       30.17F
$$




USA.gov is the U.S. government's official web portal to all federal, state and local government web resources and services.